Погода в Березовке

Россия / Калининградская область     54°25′32″N   20°42′12″E
темп.,
°C
ветер,
м/с
пор.,
м/с
влажн.,
%
обл.,
%
осадки,
мм/ч
давл.,
гПа
погр.,
м
9 мая, вс
вс923:00+2юз22940 0.0 101921
02:00+1ююз339219 0.0 101940
05:00+1ю3692100 0.0 1019109
08:00+7ю5107443 0.0 1019382
11:00+12ююв7959100 0.0 10181081
14:00+12ююв51163100 0.0 1017662
17:00+12ююв51376100 0.0 1016653
20:00+13ююв41181100 0.0 1015379
10 мая, пн
пн1023:00+11ююв5158836 0.0 1015368
02:00+10ю514835 0.0 1016344
05:00+8ююв5149363 0.0 1015286
08:00+13ююв613816 0.0 1016385
11:00+18ююв7126651 0.0 1016683
14:00+21ююв7116460 0.0 1016908
17:00+20ююв7126868 0.0 1015949
20:00+16ююв5147853 0.0 1016574
11 мая, вт
вт1123:00+13юв5158612 0.0 1016461
02:00+13ююв6158689 0.0 1016423
05:00+11юв5148965 0.0 1016361
08:00+14юв7167810 0.0 1016576
11:00+19юв8156911 0.0 1016863
14:00+21юв8146524 0.0 10151105
17:00+19юв9146724 0.0 1014981
20:00+16юв715710 0.0 1014732
12 мая, ср
ср1223:00+13юв717670 0.0 1015589
02:00+11юв618730 0.0 1015564
05:00+11юв517850 0.0 1014481
08:00+15юв615800 0.0 1014609
11:00+19юв812714 0.0 10141139
14:00+19юв811620 0.0 10131344
17:00+18вюв711654 0.0 10131298
20:00+14вюв61370100 0.0 1012595
13 мая, чт
чт1323:00+10вюв398445 0.0 1012200
02:00+8вюв2289100 0.0 101029
05:00+10св2280100 0.0 100874
08:00+11сз1180100 0.0 100698
11:00+15зсз227495 0.1 1004920
14:00+14зюз3378100 0.4 1002650
17:00+13ю128482 0.2 1002210
20:00+13ююв2484100 0.3 100299